TimeHST,TemperatureF,Dew PointF,Humidity,Sea Level PressureIn,VisibilityMPH,Wind Direction,Wind SpeedMPH,Gust SpeedMPH,PrecipitationIn,Events,Conditions,WindDirDegrees,DateUTC
12:53 AM,73.0,64.0,73,30.12,10.0,ENE,11.5,-,N/A,,Partly Cloudy,60,2012-05-04 10:53:00
1:53 AM,73.0,64.0,73,30.10,10.0,ENE,13.8,-,N/A,,Scattered Clouds,60,2012-05-04 11:53:00
2:53 AM,73.0,64.0,73,30.09,10.0,ENE,13.8,-,N/A,,Scattered Clouds,60,2012-05-04 12:53:00
3:03 AM,73.4,64.4,73,30.09,10.0,NE,13.8,-,N/A,,Mostly Cloudy,50,2012-05-04 13:03:00
3:14 AM,73.4,64.4,73,30.09,10.0,ENE,12.7,-,N/A,,Mostly Cloudy,60,2012-05-04 13:14:00
3:53 AM,73.0,64.0,73,30.08,10.0,ENE,13.8,-,N/A,,Overcast,60,2012-05-04 13:53:00
4:53 AM,73.0,64.9,76,30.08,10.0,NE,19.6,-,0.00,,Overcast,50,2012-05-04 14:53:00
5:15 AM,73.4,64.4,73,30.09,10.0,NE,19.6,-,N/A,,Overcast,50,2012-05-04 15:15:00
5:23 AM,73.4,64.4,73,30.09,10.0,ENE,19.6,-,N/A,,Overcast,60,2012-05-04 15:23:00
5:53 AM,73.0,64.9,76,30.09,10.0,ENE,20.7,-,N/A,,Overcast,60,2012-05-04 15:53:00
6:53 AM,73.9,66.0,76,30.10,10.0,ENE,21.9,27.6,N/A,,Mostly Cloudy,70,2012-05-04 16:53:00
7:53 AM,75.9,64.9,69,30.12,10.0,ENE,17.3,-,N/A,,Scattered Clouds,60,2012-05-04 17:53:00
8:53 AM,75.9,66.0,71,30.13,10.0,ENE,17.3,-,N/A,,Scattered Clouds,60,2012-05-04 18:53:00
9:33 AM,77.0,66.2,69,30.15,10.0,ENE,17.3,-,N/A,,Scattered Clouds,60,2012-05-04 19:33:00
9:53 AM,78.1,64.9,64,30.14,10.0,ENE,19.6,-,N/A,,Scattered Clouds,60,2012-05-04 19:53:00
10:53 AM,78.1,66.0,66,30.15,10.0,ENE,17.3,-,N/A,,Scattered Clouds,60,2012-05-04 20:53:00
11:48 AM,71.6,66.2,83,30.15,3.0,ENE,15.0,-,0.01,Rain,Heavy Rain,70,2012-05-04 21:48:00
11:53 AM,72.0,68.0,87,30.15,3.0,NE,13.8,-,0.03,Rain,Rain,50,2012-05-04 21:53:00
12:41 PM,73.4,68.0,83,30.14,7.0,ENE,18.4,-,0.06,Rain,Light Rain,70,2012-05-04 22:41:00
12:53 PM,73.0,68.0,84,30.13,7.0,ENE,19.6,25.3,0.06,,Overcast,70,2012-05-04 22:53:00
1:07 PM,73.4,68.0,83,30.13,10.0,East,19.6,-,N/A,,Overcast,80,2012-05-04 23:07:00
1:08 PM,73.4,68.0,83,30.13,10.0,East,20.7,-,N/A,,Overcast,80,2012-05-04 23:08:00
1:53 PM,75.0,66.0,73,30.12,10.0,ENE,19.6,-,N/A,,Mostly Cloudy,70,2012-05-04 23:53:00
2:53 PM,75.0,66.0,73,30.10,10.0,East,19.6,24.2,N/A,,Mostly Cloudy,80,2012-05-05 00:53:00
3:53 PM,75.0,66.0,73,30.08,10.0,ENE,15.0,-,0.00,,Overcast,60,2012-05-05 01:53:00
4:53 PM,73.9,66.9,79,30.08,10.0,East,18.4,-,0.01,,Overcast,80,2012-05-05 02:53:00
5:53 PM,73.9,66.0,76,30.09,10.0,ENE,17.3,-,N/A,,Overcast,70,2012-05-05 03:53:00
6:00 PM,73.4,66.2,78,30.09,10.0,ENE,16.1,26.5,N/A,,Overcast,70,2012-05-05 04:00:00
6:48 PM,73.4,66.2,78,30.10,10.0,ENE,16.1,21.9,N/A,,Overcast,60,2012-05-05 04:48:00
6:53 PM,73.0,66.0,79,30.10,3.0,ENE,15.0,-,0.00,Rain,Light Rain,60,2012-05-05 04:53:00
7:01 PM,71.6,66.2,83,30.10,10.0,ENE,16.1,20.7,0.01,,Overcast,60,2012-05-05 05:01:00
7:24 PM,73.4,66.2,78,30.11,10.0,ENE,15.0,-,0.01,,Overcast,70,2012-05-05 05:24:00
7:53 PM,73.0,66.0,79,30.11,10.0,ENE,16.1,-,0.01,,Overcast,70,2012-05-05 05:53:00
8:53 PM,72.0,66.9,84,30.13,10.0,NE,9.2,-,N/A,,Overcast,50,2012-05-05 06:53:00
9:53 PM,72.0,66.0,81,30.14,10.0,ENE,15.0,-,0.02,,Overcast,70,2012-05-05 07:53:00
10:53 PM,73.0,66.0,79,30.14,10.0,ENE,15.0,-,N/A,,Mostly Cloudy,60,2012-05-05 08:53:00
11:53 PM,72.0,66.9,84,30.13,10.0,ENE,16.1,-,N/A,,Mostly Cloudy,60,2012-05-05 09:53:00